KC9VAF Weather Reports


Display with metric or nautical units.
time (UTC)temp
F
wind
direction
speed
MPH
gust
MPH
rain 1hr
in
rain 24hr
in
rain mn
in
humidity
%
barometer
mb
20260906040139 67 71 0.0 0.0 0.00 0.00 0.00 94 1018.7
20260906035633 67 50 1.0 1.0 0.00 0.00 0.00 94 1018.6
20260906035129 67 49 2.0 2.0 0.00 0.00 0.00 93 1018.7
20260906034624 67 83 1.0 1.0 0.00 0.00 0.00 93 1018.8
20260906034118 68 74 0.0 0.0 0.00 0.00 0.00 93 1018.7
20260906033614 68 54 1.0 1.0 0.00 0.00 0.00 93 1018.7
20260906033109 68 62 0.0 0.0 0.00 0.00 0.00 92 1018.9
20260906032606 68 61 1.0 1.0 0.00 0.00 0.00 93 1018.6
20260906032105 68 56 2.0 2.0 0.00 0.00 0.00 93 1018.8
20260906031601 68 24 3.0 3.0 0.00 0.00 0.00 92 1018.7
20260906031057 68 52 1.0 1.0 0.00 0.00 0.00 92 1018.7
20260906030555 68 14 2.0 3.0 0.00 0.00 0.00 92 1018.5
20260906030049 68 56 1.0 2.0 0.00 0.00 0.00 92 1018.7
20260906025544 68 38 3.0 3.0 0.00 0.00 0.00 92 1018.7
20260906025043 68 75 0.0 1.0 0.00 0.00 0.00 92 1018.6
20260906024538 68 54 3.0 5.0 0.00 0.00 0.00 92 1018.5
20260906024037 68 62 3.0 3.0 0.00 0.00 0.00 92 1018.7
20260906023534 68 57 4.0 6.0 0.00 0.00 0.00 92 1018.4
20260906023028 68 59 1.0 2.0 0.00 0.00 0.00 91 1018.5
20260906022524 68 58 2.0 3.0 0.00 0.00 0.00 91 1018.4
20260906022019 68 40 2.0 2.0 0.00 0.00 0.00 91 1018.5
20260906021515 68 63 1.0 1.0 0.00 0.00 0.00 91 1018.4
20260906021009 68 50 1.0 1.0 0.00 0.00 0.00 91 1018.3
20260906020508 68 53 3.0 3.0 0.00 0.00 0.00 91 1018.3
20260906020007 68 63 1.0 1.0 0.00 0.00 0.00 91 1018.6
20260906015501 69 52 2.0 3.0 0.00 0.00 0.00 90 1018.4
20260906015001 69 64 1.0 2.0 0.00 0.00 0.00 90 1018.3
20260906014456 69 69 1.0 1.0 0.00 0.00 0.00 90 1018.5
20260906013952 69 56 1.0 1.0 0.00 0.00 0.00 90 1018.7
20260906013447 69 38 1.0 1.0 0.00 0.00 0.00 89 1018.5
20260906012943 69 64 1.0 1.0 0.00 0.00 0.00 90 1018.5
20260906012437 69 7 1.0 2.0 0.00 0.00 0.00 90 1018.6
20260906011936 69 66 1.0 1.0 0.00 0.00 0.00 90 1018.5
20260906011432 69 43 2.0 2.0 0.00 0.00 0.00 89 1018.3
20260906010927 70 26 3.0 3.0 0.00 0.00 0.00 89 1018.5
20260906010422 70 76 0.0 0.0 0.00 0.00 0.00 89 1018.5
20260906005919 70 333 3.0 3.0 0.00 0.00 0.00 88 1018.6
20260906005418 70 77 1.0 2.0 0.00 0.00 0.00 87 1018.5
20260906004916 70 58 1.0 2.0 0.00 0.00 0.00 87 1018.3
20260906004411 70 41 3.0 3.0 0.00 0.00 0.00 87 1018.5
20260906003907 70 64 3.0 6.0 0.00 0.00 0.00 87 1018.4
20260906003402 70 73 2.0 3.0 0.00 0.00 0.00 88 1018.4
20260906002857 70 352 3.0 3.0 0.00 0.00 0.00 88 1018.4
20260906002356 70 37 1.0 1.0 0.00 0.00 0.00 88 1018.3
20260906001852 70 90 3.0 5.0 0.00 0.00 0.00 89 1018.2
20260906001348 70 62 2.0 2.0 0.00 0.00 0.00 89 1018.2
20260906000843 70 65 1.0 1.0 0.00 0.00 0.00 90 1018.2
20260906000342 70 61 3.0 5.0 0.00 0.00 0.00 91 1018.2
20260905235837 70 66 1.0 1.0 0.00 0.00 0.00 91 1018.3
20260905235332 70 9 4.0 6.0 0.00 0.00 0.00 91 1018.6
20260905234827 70 41 1.0 2.0 0.00 0.00 0.00 91 1018.3
20260905234322 70 69 0.0 1.0 0.00 0.00 0.00 91 1018.3
20260905233817 70 28 0.0 2.0 0.00 0.00 0.00 91 1018.3
20260905233312 70 25 2.0 3.0 0.00 0.00 0.00 92 1018.5
20260905232811 70 57 2.0 2.0 0.00 0.00 0.00 92 1018.3
20260905232308 70 59 3.0 3.0 0.00 0.00 0.00 92 1018.4
20260905231803 70 16 3.0 3.0 0.00 0.00 0.00 92 1018.4
20260905231258 70 53 1.0 1.0 0.00 0.00 0.00 92 1018.5
20260905230754 70 44 3.0 5.0 0.00 0.00 0.00 92 1018.5
20260905230252 70 42 1.0 1.0 0.00 0.00 0.00 92 1018.3
20260905225752 70 51 3.0 3.0 0.00 0.00 0.00 92 1018.3
20260905225247 71 70 2.0 3.0 0.00 0.00 0.00 92 1018.6
20260905224746 71 33 2.0 2.0 0.00 0.00 0.00 91 1018.5
20260905224242 71 349 3.0 5.0 0.00 0.00 0.00 90 1018.7
20260905223737 71 81 1.0 2.0 0.00 0.00 0.00 90 1018.6
20260905223234 71 79 3.0 5.0 0.00 0.00 0.00 90 1018.4
20260905222730 71 90 0.0 1.0 0.00 0.00 0.00 90 1018.3
20260905222229 71 43 3.0 5.0 0.00 0.00 0.00 90 1018.3
20260905221725 72 69 3.0 5.0 0.00 0.00 0.00 89 1018.1
20260905221222 72 55 3.0 3.0 0.00 0.00 0.00 90 1017.9
20260905220717 72 57 3.0 3.0 0.00 0.00 0.00 90 1017.9
20260905220213 71 67 2.0 2.0 0.00 0.00 0.00 90 1017.9
20260905215712 72 63 2.0 2.0 0.00 0.00 0.00 90 1017.9
20260905215208 72 67 2.0 2.0 0.00 0.00 0.00 90 1017.7
20260905214704 72 30 2.0 3.0 0.00 0.00 0.00 90 1017.8
20260905214159 72 47 0.0 1.0 0.00 0.00 0.00 90 1017.7
20260905213654 72 66 3.0 3.0 0.00 0.00 0.00 89 1017.8
20260905213150 72 58 3.0 3.0 0.00 0.00 0.00 89 1017.6
20260905212645 72 335 1.0 2.0 0.00 0.00 0.00 89 1017.6
20260905212144 73 60 2.0 3.0 0.00 0.00 0.00 88 1017.6
20260905211639 73 49 1.0 1.0 0.00 0.00 0.00 89 1017.7
20260905211134 73 41 0.0 1.0 0.00 0.00 0.00 89 1017.4
20260905210631 73 47 2.0 3.0 0.00 0.00 0.00 88 1017.4
20260905210126 73 71 1.0 1.0 0.00 0.00 0.00 88 1017.4
20260905205624 74 45 7.0 8.0 0.00 0.00 0.00 87 1017.7
20260905205119 74 85 4.0 7.0 0.00 0.00 0.00 87 1017.6
20260905204618 75 49 3.0 3.0 0.00 0.00 0.00 86 1017.6
20260905204113 74 306 3.0 5.0 0.00 0.00 0.00 87 1017.5
20260905203608 75 70 3.0 5.0 0.00 0.00 0.00 87 1017.4
20260905203103 75 68 3.0 3.0 0.00 0.00 0.00 85 1017.5
20260905202558 75 45 2.0 2.0 0.00 0.00 0.00 86 1017.4
20260905202048 76 48 3.0 5.0 0.00 0.00 0.00 85 1017.4
20260905201544 76 17 2.0 3.0 0.00 0.00 0.00 86 1017.7
20260905201043 76 46 3.0 3.0 0.00 0.00 0.00 86 1017.4
20260905200539 76 65 3.0 3.0 0.00 0.00 0.00 86 1017.4
20260905200038 76 30 2.0 2.0 0.00 0.00 0.00 86 1017.4
20260905195532 75 46 4.0 5.0 0.00 0.00 0.00 87 1017.4
20260905195028 74 50 1.0 1.0 0.00 0.00 0.00 89 1017.5
20260905194527 75 81 1.0 2.0 0.00 0.00 0.00 88 1017.6
20260905194021 76 71 3.0 5.0 0.00 0.00 0.00 88 1017.5
20260905193516 75 18 4.0 5.0 0.00 0.00 0.00 89 1017.5
20260905193011 76 49 4.0 6.0 0.00 0.00 0.00 88 1017.7
20260905192506 76 29 4.0 6.0 0.00 0.00 0.00 88 1017.6
20260905192003 75 74 3.0 3.0 0.00 0.00 0.00 89 1017.6
20260905191501 75 58 2.0 2.0 0.00 0.00 0.00 89 1017.6
20260905191001 75 98 2.0 3.0 0.00 0.00 0.00 89 1017.3
20260905190459 76 90 4.0 5.0 0.00 0.00 0.00 88 1017.4
20260905185957 77 38 4.0 7.0 0.00 0.00 0.00 86 1017.6
20260905185453 78 63 2.0 3.0 0.00 0.00 0.00 86 1017.7
20260905184951 77 43 3.0 5.0 0.00 0.00 0.00 87 1017.5
20260905184446 77 36 4.0 5.0 0.00 0.00 0.00 87 1017.5
20260905183945 77 67 5.0 7.0 0.00 0.00 0.00 86 1017.6
20260905183439 79 313 4.0 6.0 0.00 0.00 0.00 84 1017.5
20260905182935 78 78 1.0 2.0 0.00 0.00 0.00 83 1017.5
20260905182434 78 54 3.0 3.0 0.00 0.00 0.00 84 1017.3
20260905181929 78 14 3.0 3.0 0.00 0.00 0.00 84 1017.4
20260905181429 78 59 2.0 2.0 0.00 0.00 0.00 84 1017.6
20260905180929 78 39 3.0 5.0 0.00 0.00 0.00 84 1017.1
20260905180424 78 17 3.0 3.0 0.00 0.00 0.00 85 1017.5
20260905175918 78 13 4.0 6.0 0.00 0.00 0.00 84 1017.5
20260905175418 78 34 2.0 2.0 0.00 0.00 0.00 84 1017.4
20260905174913 78 46 5.0 6.0 0.00 0.00 0.00 84 1017.4
20260905174409 78 54 1.0 2.0 0.00 0.00 0.00 85 1017.4
20260905173904 78 65 3.0 3.0 0.00 0.00 0.00 84 1017.5
20260905173401 78 72 2.0 2.0 0.00 0.00 0.00 85 1017.5
20260905172855 77 23 0.0 1.0 0.00 0.00 0.00 86 1017.4
20260905172353 76 82 0.0 1.0 0.00 0.00 0.00 87 1017.6
20260905171849 76 65 1.0 2.0 0.00 0.00 0.00 87 1017.4
20260905171346 76 69 1.0 2.0 0.00 0.00 0.00 87 1017.5
20260905170842 76 28 0.0 1.0 0.00 0.00 0.00 87 1017.7
20260905170338 76 38 2.0 2.0 0.00 0.00 0.00 87 1017.6
20260905165837 76 45 2.0 3.0 0.00 0.00 0.00 87 1017.6
20260905165333 76 75 1.0 2.0 0.00 0.00 0.00 87 1017.7
20260905164832 77 74 3.0 3.0 0.00 0.00 0.00 86 1017.6
20260905164328 77 50 1.0 2.0 0.00 0.00 0.00 86 1017.8
20260905163823 77 39 2.0 2.0 0.00 0.00 0.00 86 1017.5
20260905163319 77 325 2.0 2.0 0.00 0.00 0.00 85 1017.5
20260905162815 76 43 1.0 1.0 0.00 0.00 0.00 86 1017.6
20260905162309 76 43 2.0 3.0 0.00 0.00 0.00 87 1017.4
20260905161804 76 54 3.0 5.0 0.00 0.00 0.00 87 1017.7
20260905161303 76 65 1.0 2.0 0.00 0.00 0.00 88 1017.8
20260905160801 75 9 3.0 3.0 0.00 0.00 0.00 89 1017.6
20260905160255 75 65 2.0 3.0 0.00 0.00 0.00 89 1017.5
20260905155750 75 68 4.0 5.0 0.00 0.00 0.00 88 1017.8
20260905155249 75 45 1.0 2.0 0.00 0.00 0.00 89 1017.6
20260905154743 75 46 1.0 2.0 0.00 0.00 0.00 90 1017.4
20260905154239 75 57 3.0 5.0 0.00 0.00 0.00 89 1017.6
20260905153735 75 48 1.0 2.0 0.00 0.00 0.00 89 1017.3
20260905153230 75 357 3.0 3.0 0.00 0.00 0.00 89 1017.4
20260905152725 75 41 2.0 3.0 0.00 0.00 0.00 88 1017.3
20260905152225 75 33 2.0 3.0 0.00 0.00 0.00 88 1017.4
20260905151725 76 55 4.0 5.0 0.00 0.00 0.00 87 1017.4
20260905151221 76 43 1.0 2.0 0.00 0.00 0.00 87 1017.2
20260905150721 76 58 3.0 3.0 0.00 0.00 0.00 87 1017.2
20260905150220 75 49 2.0 3.0 0.00 0.00 0.00 89 1017.2
20260905145718 75 79 1.0 1.0 0.00 0.00 0.00 89 1017.2
20260905145213 75 35 2.0 3.0 0.00 0.00 0.00 89 1017.2
20260905144712 74 86 0.0 0.0 0.00 0.00 0.00 90 1017.2
20260905144212 74 69 0.0 1.0 0.00 0.00 0.00 91 1016.8
20260905143712 73 62 1.0 2.0 0.00 0.00 0.00 92 1016.7
20260905143212 73 33 2.0 2.0 0.00 0.00 0.00 92 1016.9
20260905142710 73 350 5.0 7.0 0.00 0.00 0.00 92 1016.6
20260905142205 73 7 1.0 2.0 0.00 0.00 0.00 93 1016.7
20260905141701 73 46 1.0 1.0 0.00 0.00 0.00 94 1016.8
20260905141156 72 76 1.0 2.0 0.00 0.00 0.00 94 1017.0
20260905140651 72 25 3.0 6.0 0.00 0.00 0.00 95 1016.7
20260905140145 72 86 4.0 6.0 0.00 0.00 0.00 96 1016.8
20260905135640 71 62 3.0 3.0 0.00 0.00 0.00 96 1016.7
20260905135136 71 86 0.0 0.0 0.00 0.00 0.00 96 1016.9
20260905134630 71 52 3.0 3.0 0.00 0.00 0.00 96 1017.0
20260905134129 71 75 1.0 1.0 0.00 0.00 0.00 97 1016.7
20260905133625 71 343 2.0 2.0 0.00 0.00 0.00 97 1016.7
20260905133125 71 78 4.0 6.0 0.00 0.00 0.00 97 1016.8
20260905132624 71 27 1.0 2.0 0.00 0.00 0.00 97 1017.1
20260905132119 71 60 1.0 2.0 0.00 0.00 0.00 98 1017.1
20260905131614 71 57 0.0 2.0 0.00 0.00 0.00 98 1017.2
20260905131110 71 357 3.0 3.0 0.00 0.00 0.00 98 1016.8
20260905130609 71 5 2.0 2.0 0.00 0.00 0.00 98 1016.4
20260905130104 71 29 1.0 2.0 0.00 0.00 0.00 98 1016.5
20260905125603 71 3 2.0 2.0 0.00 0.00 0.00 98 1016.7
20260905125059 70 66 2.0 2.0 0.00 0.00 0.00 98 1016.5
20260905124555 70 82 1.0 2.0 0.00 0.00 0.00 98 1016.4
20260905124051 70 45 1.0 2.0 0.00 0.00 0.00 98 1016.2
20260905123546 70 22 2.0 5.0 0.00 0.00 0.00 98 1016.1
20260905123043 70 69 1.0 2.0 0.00 0.00 0.00 99 1016.3
20260905122543 70 76 0.0 0.0 0.00 0.00 0.00 98 1016.2
20260905122037 70 41 1.0 1.0 0.00 0.00 0.00 98 1015.9
20260905121532 70 25 2.0 3.0 0.00 0.00 0.00 98 1015.8
20260905121027 70 76 0.0 0.0 0.00 0.00 0.00 99 1015.8
20260905120527 70 59 1.0 1.0 0.00 0.00 0.00 98 1016.0
20260905120022 70 54 1.0 1.0 0.00 0.00 0.00 98 1016.0
20260905115521 70 10 2.0 2.0 0.00 0.00 0.00 98 1016.0
20260905115016 70 36 1.0 1.0 0.00 0.00 0.00 98 1015.7
20260905114515 69 50 3.0 3.0 0.00 0.00 0.00 98 1015.7
20260905114014 69 62 1.0 2.0 0.00 0.00 0.00 98 1015.9
20260905113510 69 68 2.0 2.0 0.00 0.00 0.00 98 1015.8
20260905113005 69 65 2.0 2.0 0.00 0.00 0.00 98 1015.4
20260905112500 69 81 2.0 3.0 0.00 0.00 0.00 98 1015.6
20260905111955 70 49 1.0 2.0 0.00 0.00 0.00 98 1015.7
20260905111449 70 350 3.0 3.0 0.00 0.00 0.00 98 1015.4
20260905110944 70 31 5.0 6.0 0.00 0.00 0.00 98 1015.3
20260905110443 70 1 3.0 6.0 0.00 0.00 0.00 98 1015.4
20260905105937 70 79 2.0 5.0 0.00 0.00 0.00 98 1015.2
20260905105432 70 30 4.0 5.0 0.00 0.00 0.00 97 1015.3
20260905104926 70 28 3.0 3.0 0.00 0.00 0.00 97 1015.4
20260905104422 70 58 1.0 2.0 0.00 0.00 0.00 98 1015.2
20260905103921 70 38 1.0 2.0 0.00 0.00 0.00 98 1015.1
20260905103412 70 80 2.0 3.0 0.00 0.00 0.00 98 1015.2
20260905102908 70 65 1.0 2.0 0.00 0.00 0.00 98 1015.2
20260905102404 70 28 3.0 5.0 0.00 0.00 0.00 98 1015.0
20260905101904 70 33 2.0 3.0 0.00 0.00 0.00 98 1015.1
20260905101402 70 65 3.0 3.0 0.00 0.00 0.00 98 1014.9
20260905100857 70 15 2.0 2.0 0.00 0.00 0.00 98 1015.0
20260905100353 70 42 1.0 2.0 0.00 0.00 0.00 98 1014.9
20260905095852 70 34 3.0 3.0 0.00 0.00 0.00 98 1015.1
20260905095347 70 50 2.0 2.0 0.00 0.00 0.00 98 1014.9
20260905094841 70 38 5.0 6.0 0.00 0.00 0.00 98 1014.9
20260905094337 70 47 0.0 1.0 0.00 0.00 0.00 98 1014.6
20260905093836 70 36 1.0 1.0 0.00 0.00 0.00 98 1014.8
20260905093332 70 44 0.0 1.0 0.00 0.00 0.00 98 1014.9
20260905092827 70 69 0.0 0.0 0.00 0.00 0.00 98 1014.8
20260905092322 70 58 0.0 0.0 0.00 0.00 0.00 98 1014.7
20260905091817 70 52 2.0 2.0 0.00 0.00 0.00 98 1014.5
20260905091317 70 53 0.0 2.0 0.00 0.00 0.00 98 1014.6
20260905090815 70 65 2.0 2.0 0.00 0.00 0.00 98 1014.8
20260905090311 70 60 0.0 0.0 0.00 0.00 0.00 98 1014.7
20260905085811 70 46 1.0 1.0 0.00 0.00 0.00 98 1014.7
20260905085310 70 43 0.0 0.0 0.00 0.00 0.00 98 1014.7
20260905084806 70 61 0.0 1.0 0.00 0.00 0.00 98 1014.7
20260905084300 70 56 2.0 2.0 0.00 0.00 0.00 98 1014.8
20260905083755 70 49 2.0 2.0 0.00 0.00 0.00 98 1014.8
20260905083251 70 74 0.0 0.0 0.00 0.00 0.00 98 1014.8
20260905082746 70 69 0.0 1.0 0.00 0.00 0.00 97 1014.6
20260905082242 70 5 1.0 1.0 0.00 0.00 0.00 97 1014.4
20260905081742 70 63 1.0 1.0 0.00 0.00 0.00 97 1014.7
20260905081237 70 11 1.0 1.0 0.00 0.00 0.00 97 1014.3
20260905080737 70 70 0.0 0.0 0.00 0.00 0.00 97 1014.6
20260905080237 70 33 1.0 1.0 0.00 0.00 0.00 97 1014.6
20260905075736 70 53 0.0 1.0 0.00 0.00 0.00 97 1014.6
20260905075235 70 69 1.0 1.0 0.00 0.00 0.00 97 1014.7
20260905074734 70 47 1.0 1.0 0.00 0.00 0.00 97 1014.8
20260905074230 70 64 0.0 0.0 0.00 0.00 0.00 97 1014.7
20260905073725 70 71 0.0 0.0 0.00 0.00 0.00 97 1014.5
20260905073221 70 69 0.0 0.0 0.00 0.00 0.00 97 1014.5
20260905072720 71 70 0.0 1.0 0.00 0.00 0.00 97 1014.7
20260905072216 71 67 0.0 0.0 0.00 0.00 0.00 97 1014.8
20260905071712 70 68 0.0 0.0 0.00 0.00 0.00 97 1014.4
20260905071208 70 92 0.0 0.0 0.00 0.00 0.00 97 1014.5
20260905070703 70 78 0.0 0.0 0.00 0.00 0.00 97 1014.5
20260905070159 71 77 0.0 0.0 0.00 0.00 0.00 96 1014.6
20260905065657 71 73 0.0 0.0 0.00 0.00 0.00 97 1014.6
20260905065151 71 74 0.0 0.0 0.00 0.00 0.00 97 1014.6
20260905064647 71 66 0.0 0.0 0.00 0.00 0.00 96 1014.8
20260905064143 71 71 1.0 1.0 0.00 0.00 0.00 97 1014.7
20260905063640 71 50 1.0 1.0 0.00 0.00 0.00 96 1014.6
20260905063138 71 64 0.0 0.0 0.00 0.00 0.00 96 1014.6
20260905062633 71 76 0.0 0.0 0.00 0.00 0.00 96 1014.6
20260905062132 71 72 0.0 0.0 0.00 0.00 0.00 96 1014.7
20260905061627 71 78 0.0 0.0 0.00 0.00 0.00 97 1014.9
20260905061126 71 76 1.0 1.0 0.00 0.00 0.00 97 1014.6
20260905060622 71 34 1.0 2.0 0.00 0.00 0.00 97 1015.0
20260905060119 71 11 2.0 3.0 0.00 0.00 0.00 97 1015.0
20260905055617 71 58 1.0 1.0 0.00 0.00 0.00 97 1014.5
20260905055112 71 64 0.0 0.0 0.00 0.00 0.00 97 1014.6
20260905054608 71 73 0.0 0.0 0.00 0.00 0.00 97 1014.7
20260905054103 71 84 0.0 0.0 0.00 0.00 0.00 97 1014.6
20260905053603 71 87 0.0 0.0 0.00 0.00 0.00 97 1014.5
20260905053058 71 88 0.0 0.0 0.00 0.00 0.00 96 1014.7
20260905052557 71 102 0.0 0.0 0.00 0.00 0.00 96 1014.5
20260905052052 71 79 0.0 0.0 0.00 0.00 0.00 95 1015.1
20260905051547 71 74 0.0 0.0 0.00 0.00 0.00 95 1015.1
20260905051044 71 80 0.0 0.0 0.00 0.00 0.00 95 1014.9
20260905050534 71 82 0.0 0.0 0.00 0.00 0.00 95 1014.9
20260905050031 72 83 0.0 0.0 0.00 0.00 0.00 95 1014.9
20260905045525 72 84 0.0 0.0 0.00 0.56 0.56 95 1015.0
20260905045021 72 83 0.0 0.0 0.00 0.56 0.56 95 1015.1
20260905044521 72 79 0.0 0.0 0.00 0.56 0.56 95 1015.1
20260905044021 72 74 0.0 0.0 0.00 0.56 0.56 95 1015.4
20260905043520 72 80 0.0 0.0 0.00 0.56 0.56 95 1015.0
20260905043010 72 74 0.0 0.0 0.00 0.56 0.56 95 1015.2
20260905042509 72 64 0.0 0.0 0.00 0.56 0.56 95 1015.6
20260905042004 72 73 1.0 1.0 0.00 0.56 0.56 96 1015.2
20260905041500 72 68 0.0 0.0 0.00 0.56 0.56 96 1015.2
20260905040955 72 76 0.0 0.0 0.00 0.56 0.56 96 1015.2
20260905040454 71 72 0.0 0.0 0.00 0.56 0.56 96 1015.4